This demonstration page uses our WeatherBlox Daily Observations layout. Learn more.

38.89511, -77.03637

Hourly Observations for September 22, 2019

Temp ( °F °C ) Dew Point ( °F °C ) Humidity (%) Winds ( mph kmh ) Pressure ( in mb ) Visibility ( mi km ) Precip ( " mm )
12:52 am 00:52 Mostly Cloudy 76 24.4 66 18.9 72 72 S 6 9 30.18 1022 10 16.09344 0 0
1:52 am 01:52 Mostly Cloudy 75 23.9 65 18.3 71 71 S 5 7 30.18 1022 10 16.09344 0 0
2:52 am 02:52 Partly Cloudy 73 22.8 65 18.3 76 76 S 6 9 30.15 1021 10 16.09344 0 0
3:52 am 03:52 Mostly Clear 72 22.2 65 18.3 79 79 SSW 5 7 30.15 1021 10 16.09344 0 0
4:52 am 04:52 Mostly Clear 71 21.7 65 18.3 81 81 SSW 7 11 30.12 1020 10 16.09344 0 0
5:52 am 05:52 Mostly Clear 71 21.7 65 18.3 81 81 WSW 3 6 30.12 1020 10 16.09344 0 0
6:52 am 06:52 Mostly Clear 71 21.7 65 18.3 81 81 Calm 30.15 1021 10 16.09344 0 0
7:52 am 07:52 Mostly Sunny 72 22.2 65 18.3 79 79 ESE 3 6 30.15 1021 10 16.09344 0 0
8:52 am 08:52 Mostly Sunny 74 23.3 66 18.9 76 76 SSE 3 6 30.15 1021 10 16.09344 0 0
9:52 am 09:52 Sunny 76 24.4 66 18.9 72 72 SE 5 7 30.15 1021 10 16.09344 0 0
10:52 am 10:52 Mostly Sunny 80 26.7 66 18.9 62 62 ESE 3 6 30.15 1021 10 16.09344 0 0
11:52 am 11:52 Mostly Sunny 86 30 65 18.3 49 49 E 3 6 30.15 1021 10 16.09344 0 0
12:52 pm 12:52 Partly Cloudy 89 31.7 63 17.2 42 42 SW 5 7 30.12 1020 10 16.09344 0 0
1:52 pm 13:52 Mostly Sunny 90 32.2 65 18.3 44 44 S 7 11 30.09 1019 10 16.09344 0 0
2:52 pm 14:52 Partly Cloudy 93 33.9 64 17.8 38 38 S 8 13 30.06 1018 10 16.09344 0 0
3:52 pm 15:52 Partly Cloudy 91 32.8 66 18.9 44 44 S 12 19 30.03 1017 10 16.09344 0 0
4:52 pm 16:52 Mostly Cloudy 89 31.7 68 20 50 50 S 12 19 30.03 1017 10 16.09344 0 0
5:52 pm 17:52 Mostly Cloudy 88 31.1 68 20 52 52 S 8 13 30.03 1017 10 16.09344 0 0
6:52 pm 18:52 Mostly Cloudy 84 28.9 69 20.6 61 61 S 6 9 30.03 1017 10 16.09344 0 0
7:52 pm 19:52 Mostly Cloudy 82 27.8 70 21.1 67 67 S 7 11 30.03 1017 10 16.09344 0 0
8:52 pm 20:52 Mostly Cloudy 80 26.7 70 21.1 71 71 S 6 9 30.03 1017 10 16.09344 0 0
9:52 pm 21:52 Partly Cloudy 79 26.1 70 21.1 74 74 S 7 11 30.03 1017 10 16.09344 0 0
10:52 pm 22:52 Mostly Cloudy 78 25.6 69 20.6 74 74 S 9 15 30 1016 10 16.09344 0 0
11:52 pm 23:52 Mostly Cloudy 78 25.6 69 20.6 74 74 S 12 19 30 1016 10 16.09344 0 0

Powered by AerisWeather